AG4OX Weather Reports


Display with metric or nautical units.
time (UTC)temp
F
wind
direction
speed
MPH
gust
MPH
rain 1hr
in
rain 24hr
in
rain mn
in
humidity
%
barometer
mb
20260504043007 73 76 2.0 3.0 0.00 0.04 0.00 76 1014.6
20260504042007 73 64 2.0 5.0 0.00 0.04 0.00 76 1014.5
20260504041005 73 66 3.0 6.0 0.00 0.04 0.00 76 1014.6
20260504040006 73 71 2.0 10.0 0.00 0.04 0.00 76 1014.6
20260504035005 73 66 2.0 6.0 0.00 0.04 0.04 76 1014.7
20260504034006 73 64 3.0 6.0 0.00 0.04 0.04 75 1014.7
20260504033005 72 59 1.0 3.0 0.00 0.04 0.04 75 1015.0
20260504032005 73 47 3.0 7.0 0.00 0.04 0.04 75 1014.9
20260504031005 72 60 2.0 3.0 0.00 0.04 0.04 75 1014.9
20260504030005 72 74 2.0 6.0 0.00 0.04 0.04 75 1015.0
20260504025005 72 59 3.0 10.0 0.00 0.04 0.04 76 1014.9
20260504024007 72 59 2.0 7.0 0.00 0.04 0.04 76 1014.9
20260504023006 72 79 1.0 6.0 0.00 0.04 0.04 76 1014.8
20260504022007 72 44 2.0 7.0 0.00 0.04 0.04 76 1014.8
20260504021006 72 65 3.0 7.0 0.00 0.04 0.04 76 1014.7
20260504020006 72 58 2.0 6.0 0.00 0.04 0.04 76 1014.6
20260504015007 72 64 4.0 6.0 0.00 0.04 0.04 77 1014.6
20260504013006 71 63 2.0 6.0 0.00 0.04 0.04 78 1014.6
20260504012006 71 88 2.0 6.0 0.00 0.04 0.04 79 1014.4
20260504011005 71 50 3.0 6.0 0.00 0.04 0.04 79 1014.3
20260504010005 71 72 3.0 6.0 0.00 0.04 0.04 81 1014.3
20260504005006 71 79 2.0 7.0 0.00 0.04 0.04 81 1014.2
20260504002006 71 66 3.0 9.0 0.00 0.04 0.04 79 1014.3
20260504001006 72 69 4.0 12.0 0.00 0.04 0.04 78 1014.0
20260504000005 72 83 3.0 8.0 0.00 0.04 0.04 77 1013.9
20260503235006 72 42 3.0 9.0 0.00 0.04 0.04 76 1013.8
20260503234006 72 64 2.0 3.0 0.00 0.04 0.04 77 1013.9
20260503232005 72 59 1.0 3.0 0.00 0.04 0.04 77 1013.8
20260503230006 72 67 2.0 7.0 0.00 0.04 0.04 76 1013.6
20260503225006 72 43 1.0 7.0 0.00 0.04 0.04 77 1013.6
20260503224006 72 34 2.0 9.0 0.00 0.04 0.04 77 1013.6
20260503223006 72 75 4.0 10.0 0.00 0.04 0.04 76 1013.6
20260503222006 72 68 5.0 10.0 0.00 0.04 0.04 76 1013.7
20260503221008 72 78 3.0 9.0 0.00 0.04 0.04 76 1013.8
20260503220006 72 53 5.0 7.0 0.00 0.04 0.04 76 1013.8
20260503215006 72 62 3.0 8.0 0.00 0.04 0.04 75 1013.8
20260503214006 73 37 2.0 6.0 0.00 0.04 0.04 75 1013.8
20260503213007 73 20 3.0 8.0 0.00 0.04 0.04 74 1013.8
20260503212006 73 43 2.0 9.0 0.00 0.04 0.04 74 1013.7
20260503211006 73 63 3.0 7.0 0.00 0.04 0.04 74 1013.7
20260503205005 74 50 3.0 10.0 0.00 0.04 0.04 73 1014.0
20260503204006 74 72 6.0 10.0 0.00 0.04 0.04 71 1014.1
20260503202007 74 47 2.0 9.0 0.00 0.04 0.04 74 1014.1
20260503201006 73 38 3.0 7.0 0.00 0.04 0.04 73 1014.1
20260503200006 73 63 3.0 7.0 0.00 0.04 0.04 74 1014.1
20260503195007 73 78 4.0 9.0 0.00 0.04 0.04 73 1014.2
20260503194006 74 349 3.0 7.0 0.00 0.04 0.04 73 1014.1
20260503193007 74 38 3.0 10.0 0.00 0.04 0.04 73 1014.2
20260503192007 73 56 5.0 9.0 0.00 0.04 0.04 73 1014.3
20260503191006 73 38 2.0 12.0 0.00 0.04 0.04 74 1014.7
20260503185005 73 20 4.0 9.0 0.00 0.04 0.04 75 1014.9
20260503184005 73 58 5.0 7.0 0.00 0.04 0.04 75 1015.2
20260503183006 73 52 4.0 8.0 0.00 0.04 0.04 76 1015.3
20260503182006 73 63 4.0 7.0 0.00 0.04 0.04 77 1015.4
20260503175005 73 45 3.0 8.0 0.00 0.04 0.04 75 1015.7
20260503174006 73 41 3.0 10.0 0.00 0.04 0.04 75 1015.5
20260503172006 72 42 2.0 5.0 0.00 0.04 0.04 77 1015.5
20260503171006 72 27 3.0 7.0 0.00 0.04 0.04 77 1015.5
20260503151005 71 40 3.0 10.0 0.00 0.04 0.04 82 1016.0
20260503131007 68 328 2.0 3.0 0.00 0.04 0.04 84 1014.6
20260503081007 69 350 3.0 6.0 0.00 0.00 0.00 84 1012.3
20260503072005 70 326 2.0 3.0 0.00 0.00 0.00 82 1011.8
20260503071006 70 293 3.0 5.0 0.00 0.00 0.00 83 1011.7
20260503055007 71 282 3.0 10.0 0.00 0.00 0.00 84 1012.1
20260503053006 71 254 3.0 6.0 0.00 0.00 0.00 84 1012.3
20260503052005 71 262 3.0 8.0 0.00 0.00 0.00 84 1012.3
20260503051006 71 277 3.0 5.0 0.00 0.00 0.00 83 1012.4
20260503050005 71 267 3.0 6.0 0.00 0.00 0.00 83 1012.3
20260503045005 71 254 3.0 9.0 0.00 0.00 0.00 83 1012.3